Location: Izdebno
(52.6670°N, 16.2170°E)
Time: 11:58:14
(UTC+02:00)

A-11 Canister half - Pass Details

Date: 13 February 2023
Orbit: 1526 x 1682 km, 47.3° (Epoch: 26 March)

Event Time Altitude Azimuth Distance (km) Brightness Sun altitude
Rises 04:19:15 0° 240° (WSW) 4,690 - -27.2°
Reaches altitude 10° 04:22:22 10° 236° (SW) 3,699 - -26.8°
Exits shadow 04:27:29 35° 219° (SW) 2,265 9.5 -26.0°
Maximum altitude 04:31:19 55° 162° (SSE) 1,783 9.3 -25.5°
Drops below altitude 10° 04:40:19 10° 88° (E) 3,717 12.1 -24.1°
Sets 04:43:28 0° 84° (E) 4,714 13.0 -23.6°
